Tracking 28790 objects as of 19-Apr-2024
HD Live streaming from Space Station
objects crossing your sky now

FENGYUN 1C DEB

Track FENGYUN 1C DEB now!
10-day predictions


NORAD ID: 31097
Int'l Code: 1999-025BGT
Perigee: 787.2 km
Apogee: 813.3 km
Inclination: 98.9 °
Period: 100.7 minutes
Semi major axis: 7171 km
RCS: 0.0109 m2 (small)
Launch date: May 10, 1999
Source: People's Republic of China (PRC)
Launch site: Taiyaun Space Center, China (TSC)

Note: This is SATELLITE DEBRIS
Your satellite tracking list
Your tracking list is empty




NASA's NSSDC Master Catalog

Two Line Element Set (TLE):
1 31097U 99025BGT 24110.21941411  .00014894  00000-0  58166-2 0  9990
2 31097  98.8512 207.8323 0018234 249.0766 140.8413 14.29580127884080
Source of the keplerian elements: AFSPC